DW5164 Weather Reports


Display with metric or nautical units.
time (UTC)temp
F
wind
direction
speed
MPH
gust
MPH
rain 1hr
in
rain 24hr
in
rain mn
in
humidity
%
barometer
mb
20260504224529 61 301 3.0 5.0 0.00 0.00 0.00 64 1014.2
20260504224029 61 297 3.0 6.0 0.00 0.00 0.00 63 1014.3
20260504222529 60 280 5.0 7.0 0.00 0.00 0.00 65 1014.4
20260504222028 60 272 3.0 5.0 0.00 0.00 0.00 65 1014.5
20260504221528 60 271 3.0 5.0 0.00 0.00 0.00 65 1014.5
20260504220029 59 255 3.0 5.0 0.00 0.00 0.00 66 1014.5
20260504215528 60 246 4.0 5.0 0.00 0.00 0.00 67 1014.5
20260504214528 61 59 0.0 0.0 0.00 0.00 0.00 67 1014.4
20260504214028 61 59 0.0 1.0 0.00 0.00 0.00 67 1014.4
20260504213529 62 59 0.0 0.0 0.00 0.00 0.00 67 1014.4
20260504213028 62 59 0.0 0.0 0.00 0.00 0.00 67 1014.5
20260504212528 62 59 0.0 0.0 0.00 0.00 0.00 67 1014.5
20260504212029 62 59 0.0 0.0 0.00 0.00 0.00 66 1014.5
20260504211528 62 59 0.0 2.0 0.00 0.00 0.00 66 1014.5
20260504211028 62 98 1.0 2.0 0.00 0.00 0.00 65 1014.6
20260504205531 62 119 5.0 7.0 0.00 0.00 0.00 63 1014.7
20260504205028 63 121 1.0 3.0 0.00 0.00 0.00 61 1014.6
20260504204528 63 298 0.0 0.0 0.00 0.00 0.00 59 1014.5
20260504204028 64 298 0.0 0.0 0.00 0.00 0.00 58 1014.4
20260504203529 64 298 0.0 0.0 0.00 0.00 0.00 57 1014.5
20260504203028 65 298 0.0 1.0 0.00 0.00 0.00 56 1014.4
20260504202531 65 299 0.0 1.0 0.00 0.00 0.00 56 1014.4
20260504201528 65 303 2.0 3.0 0.00 0.00 0.00 55 1014.3
20260504201028 65 295 1.0 3.0 0.00 0.00 0.00 56 1014.4
20260504200528 65 302 2.0 3.0 0.00 0.00 0.00 55 1014.3
20260504200031 66 294 1.0 2.0 0.00 0.00 0.00 54 1014.3
20260504195528 66 311 2.0 3.0 0.00 0.00 0.00 54 1014.2
20260504195028 66 316 2.0 3.0 0.00 0.00 0.00 54 1014.2
20260504194027 67 315 2.0 3.0 0.00 0.00 0.00 53 1014.2
20260504193528 67 296 2.0 3.0 0.00 0.00 0.00 54 1014.2
20260504192530 67 294 1.0 3.0 0.00 0.00 0.00 53 1014.1
20260504191529 68 307 1.0 2.0 0.00 0.00 0.00 52 1014.0
20260504191029 68 313 1.0 3.0 0.00 0.00 0.00 52 1014.0
20260504185536 69 315 1.0 3.0 0.00 0.00 0.00 50 1013.9
20260504183528 70 293 2.0 3.0 0.00 0.00 0.00 49 1013.9
20260504181027 72 310 2.0 3.0 0.00 0.00 0.00 46 1013.8
20260504180042 73 313 2.0 3.0 0.00 0.00 0.00 45 1013.9
20260504175027 74 298 2.0 3.0 0.00 0.00 0.00 44 1013.8
20260504174530 74 307 3.0 5.0 0.00 0.00 0.00 43 1013.8
20260504174035 75 308 2.0 6.0 0.00 0.00 0.00 42 1013.8
20260504173529 75 305 3.0 6.0 0.00 0.00 0.00 42 1013.7
20260504173035 75 311 5.0 6.0 0.00 0.00 0.00 41 1013.8
20260504172527 76 310 4.0 7.0 0.00 0.00 0.00 40 1013.7
20260504172028 76 306 5.0 8.0 0.00 0.00 0.00 39 1013.7
20260504171527 77 295 5.0 8.0 0.00 0.00 0.00 39 1013.7
20260504170527 77 308 5.0 8.0 0.00 0.00 0.00 37 1013.7
20260504150528 78 34 2.0 3.0 0.00 0.00 0.00 37 1014.3
20260504140543 78 181 2.0 6.0 0.00 0.00 0.00 38 1014.6
20260504130527 80 240 5.0 9.0 0.00 0.00 0.00 37 1015.1
20260504110526 77 298 2.0 8.0 0.00 0.00 0.00 37 1016.0
20260504100526 75 249 3.0 7.0 0.00 0.00 0.00 42 1016.6
20260504081526 70 278 3.0 5.0 0.00 0.00 0.00 53 1016.9
20260504081025 70 284 3.0 5.0 0.00 0.00 0.00 53 1016.8
20260504080528 70 318 2.0 3.0 0.00 0.00 0.00 55 1016.8
20260504050025 55 212 2.0 3.0 0.00 0.00 0.00 75 1016.0
20260504045526 54 219 2.0 3.0 0.00 0.00 0.00 76 1016.0
20260504045025 54 211 1.0 3.0 0.00 0.00 0.00 78 1015.9
20260504044525 54 200 1.0 1.0 0.00 0.00 0.00 78 1015.9
20260504043525 53 190 1.0 2.0 0.00 0.00 0.00 79 1015.8
20260504043025 53 190 1.0 2.0 0.00 0.00 0.00 80 1015.8
20260504042525 53 190 2.0 3.0 0.00 0.00 0.00 81 1015.8
20260504042025 53 167 1.0 2.0 0.00 0.00 0.00 80 1015.8
20260504041525 53 163 0.0 1.0 0.00 0.00 0.00 80 1015.8
20260504041027 53 163 1.0 2.0 0.00 0.00 0.00 80 1015.7
20260504040525 53 163 1.0 2.0 0.00 0.00 0.00 80 1015.7
20260504040027 53 163 0.0 0.0 0.00 0.00 0.00 79 1015.6
20260504035025 53 163 0.0 0.0 0.00 0.00 0.00 78 1015.6
20260504034525 53 163 0.0 0.0 0.00 0.00 0.00 79 1015.6
20260504034025 53 163 0.0 0.0 0.00 0.00 0.00 79 1015.6
20260504033527 54 163 0.0 0.0 0.00 0.00 0.00 77 1015.6
20260504033025 54 163 0.0 1.0 0.00 0.00 0.00 76 1015.5
20260504032525 55 170 0.0 0.0 0.00 0.00 0.00 76 1015.5
20260504032025 55 170 0.0 0.0 0.00 0.00 0.00 77 1015.5
20260504031525 55 170 0.0 0.0 0.00 0.00 0.00 76 1015.5
20260504031025 54 170 0.0 0.0 0.00 0.00 0.00 75 1015.5
20260504030525 55 170 0.0 0.0 0.00 0.00 0.00 76 1015.5
20260504030025 55 169 0.0 0.0 0.00 0.00 0.00 75 1015.5
20260504025525 55 170 0.0 1.0 0.00 0.00 0.00 75 1015.5
20260504024524 55 169 1.0 2.0 0.00 0.00 0.00 73 1015.6
20260504023541 56 169 0.0 1.0 0.00 0.00 0.00 70 1015.6
20260504023025 57 268 0.0 0.0 0.00 0.00 0.00 69 1015.6
20260504022525 57 268 0.0 0.0 0.00 0.00 0.00 68 1015.6
20260504022026 57 268 1.0 2.0 0.00 0.00 0.00 68 1015.5
20260504021524 58 268 1.0 2.0 0.00 0.00 0.00 67 1015.6
20260504021025 58 268 1.0 2.0 0.00 0.00 0.00 66 1015.6
20260504020525 58 268 1.0 2.0 0.00 0.00 0.00 65 1015.5
20260504015527 59 278 3.0 5.0 0.00 0.00 0.00 63 1015.5
20260504015027 59 280 2.0 3.0 0.00 0.00 0.00 63 1015.5
20260504014524 59 293 2.0 3.0 0.00 0.00 0.00 64 1015.5
20260504014027 59 290 2.0 3.0 0.00 0.00 0.00 64 1015.5
20260504013026 59 284 2.0 5.0 0.00 0.00 0.00 64 1015.6
20260504012525 59 288 2.0 3.0 0.00 0.00 0.00 65 1015.6
20260504012026 59 310 1.0 2.0 0.00 0.00 0.00 65 1015.6
20260504011525 59 288 3.0 3.0 0.00 0.00 0.00 65 1015.7
20260504011027 59 263 3.0 3.0 0.00 0.00 0.00 65 1015.7
20260504010528 59 272 3.0 3.0 0.00 0.00 0.00 65 1015.7
20260504010025 59 267 2.0 3.0 0.00 0.00 0.00 66 1015.7
20260504005525 59 259 3.0 3.0 0.00 0.00 0.00 66 1015.8
20260504005024 60 261 2.0 3.0 0.00 0.00 0.00 66 1015.8
20260504004025 60 273 2.0 3.0 0.00 0.00 0.00 65 1015.8
20260504003524 60 272 2.0 3.0 0.00 0.00 0.00 64 1015.9
20260504002524 61 254 1.0 2.0 0.00 0.00 0.00 65 1016.0
20260504001525 61 239 1.0 2.0 0.00 0.00 0.00 66 1016.1
20260504001025 60 239 1.0 2.0 0.00 0.00 0.00 67 1016.1
20260504000524 60 248 1.0 3.0 0.00 0.00 0.00 70 1016.1
20260504000025 60 240 2.0 3.0 0.00 0.00 0.00 70 1016.1
20260503235524 60 256 0.0 2.0 0.00 0.00 0.00 70 1016.1
20260503235027 60 265 0.0 0.0 0.00 0.00 0.00 69 1016.2
20260503234524 61 265 0.0 0.0 0.00 0.00 0.00 67 1016.2
20260503234024 61 265 0.0 1.0 0.00 0.00 0.00 65 1016.2
20260503233524 61 265 2.0 3.0 0.00 0.00 0.00 66 1016.2
20260503232025 62 288 0.0 0.0 0.00 0.00 0.00 64 1016.1
20260503231524 63 288 0.0 1.0 0.00 0.00 0.00 62 1016.2
20260503231024 63 291 2.0 3.0 0.00 0.00 0.00 62 1016.2
20260503230525 63 301 1.0 3.0 0.00 0.00 0.00 63 1016.2
20260503230024 63 327 1.0 2.0 0.00 0.00 0.00 62 1016.2
20260503225524 63 329 1.0 3.0 0.00 0.00 0.00 62 1016.3